www.pogodaiklimat.ru

Погода и климат >> Архив погоды >> Япония >> Токио


АРХИВ ПОГОДЫ в Токио

Время (UTC), дата Ветер
(напр.,м/с)
 
Видим.   Явления Облачность Т
(С)
Тd
(С)
f
(%)
Тe
(С)
Тes
(С)
Комфортность P
(гПа)
Po
(гПа)
Тmin
(С)
Tmax
(С)
R
(мм)
R24
(мм)
S
(см)
11 12.01 СЗ 3 н/о н/о +4.8 +3.5 91 +2 +2 по сезону 1018.3 1015.3
10 12.01 СЗ 2 н/о н/о +4.8 +3.6 92 +3 +3 по сезону 1018.5 1015.5
12 12.01 З 3 10 км слаб. дождь 10/10
[Sc]
+4.7 +2.2 84 +2 +2 по сезону 1018.4 1015.4 +6.2 0.0
13 12.01 З 2 н/о н/о +4.2 +3.2 93 +1 +1 тепло 1018.2 1015.2
14 12.01 С 2 н/о н/о +5.0 +3.2 88 +3 +3 по сезону 1017.8 1014.8
15 12.01 СЗ 2 н/о н/о +5.0 +3.4 89 +3 +3 по сезону 1017.4 1014.4
16 12.01 С 2 н/о н/о +5.1 +3.4 89 +3 +3 тепло 1017.6 1014.6
18 12.01 СЗ 2 10 км слаб. дождь 10/10
[Cu Sc]
+4.7 +1.6 80 +2 +2 по сезону 1017.7 1014.7 0.0
19 12.01 СЗ 3 н/о н/о +4.7 +0.8 76 +2 +2 тепло 1018.0 1015.0
20 12.01 С 2 н/о н/о +4.9 -0.5 68 +3 +3 тепло 1018.6 1015.6
21 12.01 СВ 2 15 км в посл. час дождь 9/9
[Sc]
+4.6 -0.6 69 +3 +3 по сезону 1018.7 1015.7
22 12.01 СЗ 3 н/о н/о +4.4 -1.2 67 +1 +1 тепло 1019.0 1016.0
23 12.01 СЗ 3 н/о н/о +4.7 -1.1 66 +2 +2 по сезону 1019.4 1016.4
00 13.01 СЗ 3 15 км {дождь} 9/9
[Sc]
+5.1 -1.4 63 +2 +3 по сезону 1019.9 1016.9 +4.1 0.0
01 13.01 С 2 н/о н/о +5.7 -1.0 62 +4 +4 тепло 1020.0 1017.0
02 13.01 С 3 н/о н/о +8.7 -0.3 53 +7 +7 тепло 1018.9 1015.9
03 13.01 С 3 20 км 1/1
[Cu med, cong]
+9.3 -1.4 47 +8 +13 тепло 1018.0 1015.0
04 13.01 С 3 н/о н/о +9.8 -1.9 44 +8 +8 тепло 1017.8 1014.8
05 13.01 СВ 2 н/о н/о +9.3 -2.9 42 +8 +8 тепло 1017.7 1014.7
06 13.01 СВ 3 20 км 1/1
[Cu hum]
+9.4 -3.2 41 +8 +9 по сезону 1017.7 1014.7
07 13.01 СВ 4 н/о н/о +9.0 -4.5 38 +7 +7 тепло 1017.8 1014.8
08 13.01 СВ 2 н/о н/о +7.0 -3.8 46 +5 +5 по сезону 1018.5 1015.5
09 13.01 В 2 20 км 1/1
[Cu hum]
+6.8 -0.6 59 +5 +5 по сезону 1019.5 1016.5
10 13.01 В 2 н/о н/о +5.9 +0.1 66 +4 +4 тепло 1020.1 1017.1
11 13.01 СВ 2 н/о н/о +4.5 -0.1 72 +3 +3 по сезону 1020.5 1017.5
12 13.01 СВ 3 20 км 1/1
[Sc]
+5.5 -0.1 67 +2 +2 по сезону 1021.0 1018.0 +10.1
13 13.01 С 3 н/о н/о +5.5 -1.2 62 +2 +2 тепло 1021.5 1018.5
14 13.01 СВ 3 н/о н/о +4.9 -1.5 63 +2 +2 по сезону 1021.5 1018.5
15 13.01 СВ 3 н/о н/о +4.2 -1.4 67 +1 +1 по сезону 1021.2 1018.2
16 13.01 С 2 н/о н/о +4.2 -1.6 66 +2 +2 тепло 1021.9 1018.9
17 13.01 СВ 3 н/о н/о +4.2 -1.8 65 +1 +1 по сезону 1022.0 1019.0
18 13.01 СВ 2 20 км 3/3
[Sc]
+4.3 -2.1 63 +2 +2 по сезону 1021.7 1018.7
19 13.01 СВ 3 н/о н/о +4.7 -2.4 60 +2 +2 тепло 1021.6 1018.6
20 13.01 С 1 н/о н/о +2.4 -1.9 73 +1 +1 по сезону 1022.0 1018.9
21 13.01 СЗ 2 20 км 3/3
[Sc]
+2.2 -2.1 73 -0 -0 по сезону 1022.7 1019.6
22 13.01 С 2 н/о н/о +2.0 -2.3 73 -0 -0 по сезону 1023.1 1020.0
23 13.01 С 2 н/о н/о +2.6 -2.3 70 -0 -0 по сезону 1023.4 1020.3
00 14.01 СЗ 3 35 км ясно +4.5 -2.1 62 +2 +4 по сезону 1023.8 1020.8 +1.3
01 14.01 С 2 н/о н/о +6.4 -1.7 56 +5 +5 тепло 1023.8 1020.8
02 14.01 С 2 н/о н/о +7.4 -1.8 52 +6 +6 тепло 1023.2 1020.2
03 14.01 С 3 30 км 1/1
[Cu Sc]
+8.0 -3.2 45 +6 +12 по сезону 1022.0 1019.0
04 14.01 СВ 3 н/о н/о +9.3 -2.9 42 +8 +8 тепло 1021.2 1018.2
05 14.01 СВ 2 н/о н/о +9.4 -3.2 41 +8 +8 тепло 1021.4 1018.4
06 14.01 СВ 1 25 км 1/1
[Cu Sc]
+8.9 -3.0 43 +9 +11 по сезону 1021.6 1018.6
07 14.01 СВ 2 н/о н/о +8.1 -2.8 46 +7 +7 тепло 1021.9 1018.9
08 14.01 СВ 3 н/о н/о +8.0 -3.5 44 +6 +6 по сезону 1022.6 1019.6
09 14.01 С 2 20 км ясно +6.2 -3.2 51 +5 +5 по сезону 1023.6 1020.6
10 14.01 В 3 н/о н/о +6.8 -1.6 55 +5 +5 тепло 1024.4 1021.4
11 14.01 В 2 н/о н/о +5.8 -1.6 59 +4 +4 по сезону 1024.4 1021.4
12 14.01 В 1 20 км ясно +5.1 -0.7 66 +4 +4 по сезону 1025.0 1022.0 +9.8
13 14.01 В 2 н/о н/о +5.4 -0.2 67 +4 +4 тепло 1025.4 1022.4
14 14.01 В 2 н/о н/о +5.4 -0.2 67 +4 +4 тепло 1025.4 1022.4
15 14.01 СВ 2 н/о н/о +4.2 +0.2 75 +2 +2 по сезону 1024.7 1021.7
16 14.01 СВ 2 н/о н/о +4.3 +0.3 75 +2 +2 тепло 1024.7 1021.7
17 14.01 С 1 н/о н/о +4.2 +0.5 77 +3 +3 тепло 1025.3 1022.3
18 14.01 СЗ 1 20 км 1/1
[Sc Ci sp]
+2.4 -0.5 81 +1 +1 по сезону 1025.0 1021.9
19 14.01 СЗ 2 н/о н/о +1.4 -1.7 80 -1 -1 по сезону 1024.2 1021.1
20 14.01 СЗ 2 н/о н/о +1.0 -1.9 81 -2 -2 по сезону 1024.2 1021.1
21 14.01 СЗ 2 20 км ясно +1.0 -1.7 82 -2 -2 прохладно 1024.6 1021.5
22 14.01 СЗ 2 н/о н/о +1.7 -2.2 75 -2 -2 по сезону 1024.6 1021.5
23 14.01 С 1 н/о н/о +2.5 -1.3 76 +1 +1 по сезону 1024.5 1021.4
00 15.01 СЗ 2 20 км 9/1
[Sc Ac trans Ci sp]
+3.6 -1.9 67 +2 +3 по сезону 1024.2 1021.2 +0.4
01 15.01 СЗ 2 н/о н/о +5.1 -0.9 65 +3 +3 тепло 1023.5 1020.5
02 15.01 СЗ 2 н/о н/о +5.8 -0.9 62 +4 +4 по сезону 1022.4 1019.4
03 15.01 З 2 20 км 9/3
[Sc Ac As Ci sp]
+5.6 -0.9 63 +3 +6 по сезону 1020.9 1017.9
04 15.01 Ю 1 н/о н/о +7.8 -0.2 57 +8 +8 тепло 1019.0 1016.0
05 15.01 ЮЗ 2 н/о н/о +7.4 +3.6 77 +6 +6 по сезону 1018.7 1015.7
06 15.01 В 3 10 км слаб. ливневой дождь 9/9
[Cu Sc Ac As]
+6.7 +4.4 85 +4 +4 прохладно 1016.8 1013.8 0.5
07 15.01 ЮВ 3 н/о н/о +7.0 +4.3 83 +4 +4 тепло 1015.8 1012.8
08 15.01 Ю 2 н/о н/о +6.4 +4.6 88 +5 +5 по сезону 1015.6 1012.6
09 15.01 Ю 1 10 км 5/1
[Sc Ac trans Ci sp]
+6.1 +5.4 95 +5 +5 по сезону 1015.5 1012.5
10 15.01 С 1 н/о н/о +5.8 +5.1 95 +6 +6 тепло 1014.8 1011.8
11 15.01 ЮЗ 4 н/о н/о +8.8 +4.6 75 +6 +6 тепло 1013.9 1010.9
12 15.01 ЮЗ 7 15 км 4/1
[Sc Ac trans Ci sp]
+9.8 +4.6 70 +6 +6 по сезону 1013.1 1010.2 +10.3 0.5
13 15.01 Ю 3 н/о н/о +9.3 +4.9 74 +7 +7 тепло 1012.1 1009.2
14 15.01 Ю 4 н/о н/о +9.8 +5.6 75 +7 +7 тепло 1011.1 1008.2
15 15.01 ЮЗ 2 н/о н/о +9.8 +6.0 77 +9 +9 тепло 1009.6 1006.7
16 15.01 СЗ 3 н/о н/о +5.1 +1.4 77 +2 +2 тепло 1009.5 1006.5
17 15.01 СЗ 2 н/о н/о +4.1 -0.5 72 +1 +1 по сезону 1009.0 1006.0
18 15.01 СЗ 2 10 км 9/0
[Ac trans Ci sp]
+3.6 -0.6 74 +1 +1 по сезону 1008.7 1005.7
19 15.01 С 2 н/о н/о +3.4 -0.6 75 +1 +1 тепло 1008.5 1005.5
20 15.01 С 2 н/о н/о +2.7 -1.1 76 0 0 по сезону 1009.0 1006.0
21 15.01 С 2 15 км 1/0
[Ci sp]
+2.1 -1.0 80 -0 -0 по сезону 1010.3 1007.3
22 15.01 СЗ 3 н/о н/о +3.0 -0.8 76 -0 -0 по сезону 1011.1 1008.1
23 15.01 С 3 н/о н/о +4.3 -0.1 73 +1 +1 по сезону 1011.9 1008.9
00 16.01 С 2 25 км 1/1
[Cu hum]
+7.8 -1.4 52 +6 +9 тепло 1012.3 1009.3 +1.8
01 16.01 С 3 н/о н/о +9.2 -2.4 44 +8 +8 тепло 1012.7 1009.8
02 16.01 С 4 н/о н/о +10.6 -2.8 39 +9 +9 тепло 1012.4 1009.5
03 16.01 С 4 25 км 1/1
[Cu hum Ac trans]
+10.7 -4.5 34 +9 +14 тепло 1011.9 1009.0
04 16.01 С 4 н/о н/о +10.8 -4.0 35 +9 +9 тепло 1011.6 1008.7
05 16.01 СЗ 4 н/о н/о +10.7 -4.9 33 +9 +9 тепло 1011.6 1008.7
06 16.01 СЗ 4 20 км 9/8
[Cu Sc Ac As Ci sp]
+9.7 -5.4 34 +8 +8 по сезону 1012.0 1009.1
07 16.01 СЗ 4 н/о н/о +9.3 -6.5 32 +7 +7 тепло 1012.5 1009.6
08 16.01 С 2 н/о н/о +8.4 -6.2 35 +7 +7 тепло 1013.2 1010.2
09 16.01 С 3 20 км 9/8
[Sc Ac As]
+7.8 -6.7 35 +6 +6 по сезону 1014.0 1011.0
10 16.01 СЗ 4 н/о н/о +7.3 -7.5 34 +5 +5 тепло 1014.6 1011.6
11 16.01 СЗ 4 н/о н/о +6.8 -7.6 35 +4 +4 по сезону 1014.8 1011.8
12 16.01 СЗ 2 20 км 9/8
[Cu Sc Ac As]
+6.1 -7.5 37 +5 +5 по сезону 1014.9 1011.9 +11.3
13 16.01 СЗ 3 н/о н/о +5.4 -6.8 41 +3 +3 тепло 1014.4 1011.4
14 16.01 С 3 н/о н/о +5.3 -6.3 43 +3 +3 по сезону 1014.6 1011.6
15 16.01 СЗ 5 н/о н/о +4.9 -6.3 44 +1 +1 по сезону 1014.5 1011.5
16 16.01 СЗ 3 н/о н/о +4.6 -7.2 42 +2 +2 тепло 1013.9 1010.9
17 16.01 С 3 н/о н/о +4.4 -6.8 44 +2 +2 по сезону 1013.9 1010.9
18 16.01 С 3 20 км 9/9
[Cu Sc]
+4.3 -6.3 46 +1 +1 по сезону 1014.0 1011.0
19 16.01 СЗ 2 н/о н/о +4.2 -6.7 45 +2 +2 тепло 1013.4 1010.4
20 16.01 С 2 н/о н/о +3.2 -6.5 49 +1 +1 по сезону 1013.0 1010.0
21 16.01 С 2 20 км 8/1
[Sc Ac trans Ci sp]
+2.8 -6.3 51 +1 +1 по сезону 1013.0 1010.0
22 16.01 С 2 н/о н/о +2.2 -6.9 51 0 0 по сезону 1013.2 1010.2
23 16.01 З 1 н/о н/о +2.8 -5.3 55 +2 +2 по сезону 1013.1 1010.1
00 17.01 З 2 30 км 1/0
[Ci sp]
+6.1 -6.1 41 +5 +8 по сезону 1012.8 1009.8 +2.0
01 17.01 З 1 н/о н/о +7.8 -6.3 36 +8 +8 тепло 1012.7 1009.7
02 17.01 ЮЗ 3 н/о н/о +9.7 -5.4 34 +8 +8 тепло 1011.4 1008.5
03 17.01 Ю 3 30 км 1/0
[Ac trans Ci sp]
+10.8 -2.9 38 +10 +15 тепло 1009.5 1006.6
04 17.01 ЮВ 3 н/о н/о +10.8 -1.6 42 +10 +10 тепло 1008.4 1005.5
05 17.01 ЮВ 3 н/о н/о +10.7 -0.7 45 +9 +9 тепло 1007.6 1004.7
06 17.01 ЮВ 4 20 км 1/1
[Cu hum Ac trans Ci fib]
+10.3 +0.1 49 +8 +10 по сезону 1007.3 1004.4
07 17.01 Ю 4 н/о н/о +10.1 -0.7 47 +8 +8 тепло 1007.2 1004.3
08 17.01 Ю 4 н/о н/о +8.9 +1.3 59 +6 +6 по сезону 1007.0 1004.1
09 17.01 Ю 3 20 км 1/1
[Cu hum]
+7.5 +1.4 65 +5 +5 по сезону 1007.4 1004.4
10 17.01 ЮЗ 2 н/о н/о +6.9 +1.4 68 +5 +5 тепло 1007.8 1004.8
11 17.01 СЗ 1 н/о н/о +6.0 +1.5 73 +5 +5 тепло 1008.3 1005.3
12 17.01 СЗ 2 20 км 1/1
[Cu hum]
+5.8 +1.5 74 +4 +4 по сезону 1008.9 1005.9 +11.6
13 17.01 С 2 н/о н/о +6.3 -1.1 59 +5 +5 тепло 1009.2 1006.2
14 17.01 С 2 н/о н/о +6.1 -3.3 51 +4 +4 тепло 1009.2 1006.2
15 17.01 С 2 н/о н/о +5.9 -3.4 51 +4 +4 по сезону 1009.8 1006.8
16 17.01 СЗ 4 н/о н/о +6.1 -2.7 53 +3 +3 тепло 1010.7 1007.7
17 17.01 С 3 н/о н/о +5.4 -5.0 47 +3 +3 тепло 1011.7 1008.7
18 17.01 С 4 20 км 1/1
[Cu hum]
+4.7 -6.8 43 +1 +1 по сезону 1012.8 1009.8
19 17.01 СЗ 5 н/о н/о +4.0 -8.1 41 0 0 тепло 1013.1 1010.1
20 17.01 С 5 н/о н/о +3.4 -8.6 41 -1 -1 по сезону 1014.0 1011.0
21 17.01 СЗ 6 20 км ясно +3.6 -8.4 41 -1 -1 прохладно 1015.0 1012.0
22 17.01 С 4 н/о н/о +2.9 -8.1 44 -1 -1 по сезону 1016.1 1013.1
23 17.01 С 4 н/о н/о +3.4 -8.0 43 -0 -0 по сезону 1017.5 1014.5
00 18.01 СЗ 4 40 км 1/1
[Sc]
+5.1 -8.0 38 +2 +4 по сезону 1017.9 1014.9 +2.8
01 18.01 СЗ 6 н/о н/о +6.4 -9.5 31 +3 +3 тепло 1018.2 1015.2
02 18.01 СЗ 5 н/о н/о +8.3 -8.7 29 +5 +5 по сезону 1017.4 1014.4
03 18.01 СЗ 5 40 км 1/1
[Cu med, cong]
+8.9 -10.0 25 +6 +9 по сезону 1016.4 1013.4
04 18.01 СЗ 7 н/о н/о +9.3 -11.3 22 +6 +6 тепло 1015.8 1012.8
05 18.01 С 4 н/о н/о +9.5 -10.0 24 +7 +7 по сезону 1015.5 1012.5
06 18.01 С 3 30 км 1/1
[Cu med, cong]
+8.5 -9.0 28 +7 +8 по сезону 1016.4 1013.4
07 18.01 С 3 н/о н/о +7.8 -9.1 29 +6 +6 тепло 1016.9 1013.9
08 18.01 С 2 н/о н/о +7.1 -9.3 30 +6 +6 по сезону 1017.4 1014.4
09 18.01 С 3 25 км 1/1
[Cu med, cong]
+6.8 -9.1 31 +5 +5 по сезону 1018.0 1015.0
10 18.01 СЗ 4 н/о н/о +6.4 -9.5 31 +4 +4 тепло 1018.5 1015.5
11 18.01 СЗ 4 н/о н/о +6.1 -9.7 31 +3 +3 по сезону 1019.1 1016.1
12 18.01 З 3 25 км ясно +4.2 -9.5 36 +2 +2 по сезону 1019.3 1016.3 +10.0
13 18.01 СЗ 2 н/о н/о +5.7 -10.1 31 +4 +4 тепло 1019.6 1016.6
14 18.01 СЗ 5 н/о н/о +5.2 -9.4 34 +2 +2 по сезону 1020.0 1017.0
15 18.01 З 2 н/о н/о +3.8 -8.9 39 +2 +2 по сезону 1020.0 1017.0
16 18.01 СЗ 3 н/о н/о +4.4 -8.7 38 +2 +2 тепло 1019.9 1016.9
17 18.01 СЗ 4 н/о н/о +4.5 -8.6 38 +1 +1 по сезону 1019.9 1016.9
18 18.01 СЗ 5 25 км ясно +4.9 -8.6 37 +1 +1 по сезону 1020.0 1017.0
19 18.01 З 3 н/о н/о +4.3 -8.8 38 +1 +1 тепло 1020.3 1017.3
20 18.01 З 2 н/о н/о +2.3 -7.8 47 +1 +1 по сезону 1020.4 1017.4
21 18.01 СЗ 2 25 км 1/1
[Cu hum]
+2.2 -7.7 48 -0 -0 по сезону 1021.1 1018.0
22 18.01 СЗ 2 н/о н/о +2.4 -7.5 48 +1 +1 тепло 1021.5 1018.4
23 18.01 С 3 н/о н/о +5.3 -7.5 39 +3 +3 по сезону 1021.8 1018.8
00 19.01 С 3 40 км 1/0
[Ac trans]
+6.7 -6.6 38 +4 +7 по сезону 1022.3 1019.3 +1.9
01 19.01 СЗ 4 н/о н/о +8.3 -7.0 33 +6 +6 тепло 1022.1 1019.1
02 19.01 С 4 н/о н/о +10.5 -6.3 30 +9 +9 тепло 1021.6 1018.6
03 19.01 СЗ 4 35 км 1/1
[Cu hum]
+10.5 -7.2 28 +9 +13 тепло 1020.4 1017.4
04 19.01 З 3 н/о н/о +10.6 -8.6 25 +10 +10 тепло 1019.5 1016.5
05 19.01 З 1 н/о н/о +10.4 -9.3 24 +11 +11 тепло 1019.0 1016.0
06 19.01 Ю 1 25 км 3/1
[Cu hum Ac trans Ci fib]
+10.3 -6.9 29 +12 +13 тепло 1019.1 1016.1
07 19.01 Ю 3 н/о н/о +9.5 -5.6 34 +8 +8 тепло 1019.0 1016.0
08 19.01 Ю 2 н/о н/о +7.3 -4.4 43 +6 +6 по сезону 1018.8 1015.8
09 19.01 Ю 2 20 км 1/1
[Cu hum Ci sp]
+6.5 -3.4 49 +5 +5 по сезону 1019.2 1016.2

 

Местоположение метеостанции Токио (Япония): широта 35.68 долгота 139.76 высота над уровнем моря 36 м.

В архиве по умолчанию представлена погода в Токио за последнюю неделю. Архивные данные за месяц целиком и за предыдущие месяцы, начиная с января 2011 года, Вы можете получить, выбрав интересующий диапазон дат из раскрывающегося списка и нажав кнопку "Ввод!".


*Определитесь, кто Вы:
робот инопланетянин человек

Внимание! Время в таблицах - всемирное. Для получения местного времени необходимо прибавить поправку, которая равна 9 ч.

Смотрите также архив погоды в соседних городах и на ближайших метеорологических станциях:

Погода в Иокогаме (Япония) (30 км)
Погода в Тибе (Япония) (32 км)
Погода в Кумугае (Япония) (62 км)
Погода в Чичибу (Япония) (71 км)
Погода в Кацууре (Япония) (77 км)
Погода в Татеяме (Япония) (78 км)
Погода в Аджиро (Япония) (92 км)
Погода на Озере Кавагучи (Япония) (93 км)
Погода в Уцуномии (Япония) (97 км)
Погода в Мисиме (Япония) (98 км)

Пояснения к столбцам:

Ветер - указаны скорость ветра в м/с - средняя за 10 мин, порывы в срок и между сроками (в фигурных скобках) и направление, откуда дует ветер: С - северный, СВ - северо-восточный, В - восточный, ЮВ - юго-восточный, Ю - южный, ЮЗ - юго-западный, З - западный, СЗ - северо-западный.
Видимость - горизонтальная дальность видимости в метрах или километрах. При видимости от 1 до 10 км при отсутствии осадков обычно наблюдается дымка, при ухудшении видимости до 1 км и менее - туман. В сухую погоду видимость может ухудшаться дымом, пылью или мглою.
Явления - указаны атмосферные явления, наблюдавшиеся в срок или в последний час перед сроком; фигурными скобками обозначены явления, наблюдавшиеся между сроками (за 1-3 часа до срока); квадратными скобками обозначены град или гололедные отложения с указанием их диаметра в мм.
Облачность - указаны через наклонную черту общая и нижняя облачность в баллах и высота нижней границы облаков в метрах; квадратными скобками обозначены формы облаков: Ci - перистые, Cs - перисто-слоистые, Cc - перисто-кучевые, Ac - высококучевые, As - высокослоистые, Sc - слоисто-кучевые, Ns - слоисто-дождевые, Cu - кучевые, Cb - кучево-дождевые. Подробнее классификацию облаков см. в Атласе облаков (PDF).
T - Температура воздуха - температура, измеренная на высоте 2 м над землей.
Td - Температура точки росы - температура, при понижении до которой содержащийся в воздухе водяной пар достигнет насыщения.
f - Относительная влажность воздуха - влажноcть воздуха, измеренная на высоте 2 м над землей.
Te - Эффективная температура - температура, которую ощущает одетый по сезону человек в тени. Характеристика душности погоды. При расчете учитывается влияние влажности воздуха и скорости ветра на теплоощущения человека.
Tes - Эффективная температура на солнце - температура, которую ощущает человек, с поправкой на солнечный нагрев. Характеристика знойности погоды. Зависит от высоты солнца над горизонтом, облачности и скорости ветра. Ночью, в пасмурную погоду, а также при ветре 12 м/с и более поправка равна нулю.
P - Атмосферное давление - приведенное к уровню моря атмосферное давление.
Po - Атмосферное давление - измеренное на уровне метеостанции атмосферное давление.
Tmin - Минимальная температура - минимум температуры воздуха на высоте 2 м над землей.
Tmax - Максимальная температура - максимум температуры воздуха на высоте 2 м над землей.
R - Количество осадков - Количество выпавших осадков за период времени, мм. При наведении курсора мыши на число - период времени, за который выпало указанное количество осадков.
R24 - Количество осадков - Количество выпавших осадков за 24 часа, мм.
S - Снежный покров - Высота снежного покрова, см. При наведении курсора мыши на число - состояние снежного покрова и степень покрытия местности в баллах.